Temp
-12 -12 -12 -13 -13 -13 -13 -13 -12 -12 -12 -11 -11 -11 -11 -11 -10 -10 -10 -9 -9 -9 -8 -8 -8 -8 -8 -8 -8 -8 -8 -8 -8 -9 -9 -10 -10 -10 -10 -10 -11 -11 -10 -10 -10
-13 -12 -13 -13 -13 -13 -13 -12 -12 -12 -11 -12 -12 -11 -11 -11 -11 -10 -10 -10 -9 -9 -8 -8 -8 -8 -8 -8 -8 -9 -8 -8 -9 -9 -9 -9 -11 -11 -10 -9 -10 -11 -10 -10 -10
-13 -13 -13 -13 -13 -13 -13 -12 -12 -12 -12 -12 -12 -11 -11 -11 -11 -11 -11 -10 -10 -10 -10 -9 -9 -9 -9 -9 -10 -10 -9 -10 -10 -11 -9 -9 -10 -11 -10 -9 -10 -11 -10 -10 -11
-13 -13 -13 -13 -13 -13 -13 -12 -12 -12 -12 -12 -12 -12 -12 -12 -12 -12 -12 -12 -12 -11 -11 -11 -12 -12 -13 -13 -14 -13 -13 -13 -13 -13 -11 -10 -11 -11 -10 -10 -12 -11 -10 -10 -11
-13 -13 -13 -13 -13 -13 -13 -13 -12 -13 -12 -13 -13 -13 -13 -13 -13 -13 -13 -13 -13 -14 -14 -14 -15 -16 -16 -16 -16 -16 -16 -16 -16 -15 -13 -13 -14 -13 -12 -12 -13 -11 -10 -11 -11
-14 -14 -13 -13 -13 -13 -13 -13 -13 -13 -13 -13 -13 -13 -13 -14 -14 -14 -14 -14 -15 -16 -16 -17 -17 -17 -17 -17 -17 -18 -17 -17 -17 -17 -16 -15 -15 -15 -13 -14 -14 -13 -12 -11 -12
-14 -14 -14 -13 -13 -13 -13 -13 -13 -13 -13 -13 -14 -14 -14 -14 -14 -14 -15 -15 -16 -17 -18 -18 -18 -18 -18 -18 -18 -18 -18 -17 -17 -17 -17 -17 -16 -15 -15 -16 -15 -14 -13 -12 -12
-15 -15 -14 -14 -14 -14 -13 -14 -14 -14 -14 -14 -14 -14 -14 -15 -15 -15 -15 -16 -16 -17 -18 -18 -19 -19 -19 -18 -18 -18 -18 -18 -18 -18 -17 -18 -17 -16 -16 -16 -16 -15 -14 -12 -12
-15 -15 -15 -15 -14 -14 -14 -14 -14 -14 -14 -14 -14 -15 -15 -15 -15 -15 -16 -16 -17 -18 -19 -19 -19 -19 -19 -19 -19 -19 -18 -19 -18 -18 -18 -18 -17 -17 -17 -17 -17 -16 -15 -14 -14
-15 -15 -15 -15 -15 -15 -15 -14 -14 -14 -14 -14 -14 -15 -15 -15 -15 -15 -16 -17 -17 -18 -19 -19 -19 -19 -19 -19 -19 -19 -19 -19 -19 -19 -18 -18 -17 -18 -18 -18 -17 -17 -15 -15 -14
-15 -15 -15 -15 -15 -15 -15 -15 -14 -15 -15 -15 -15 -15 -15 -15 -15 -16 -17 -17 -17 -18 -19 -19 -20 -19 -20 -20 -20 -20 -20 -20 -20 -20 -20 -19 -18 -18 -18 -18 -18 -17 -16 -15 -14
-15 -15 -15 -15 -15 -15 -15 -15 -15 -15 -15 -15 -15 -15 -15 -16 -16 -16 -17 -17 -17 -18 -18 -19 -20 -20 -20 -20 -20 -20 -20 -20 -20 -21 -20 -19 -18 -19 -19 -18 -18 -18 -17 -16 -15
-16 -15 -15 -15 -15 -15 -15 -15 -15 -15 -15 -15 -15 -15 -15 -16 -16 -17 -17 -17 -17 -18 -18 -19 -20 -19 -20 -20 -20 -20 -21 -21 -21 -21 -21 -20 -18 -19 -19 -19 -19 -18 -17 -16 -16
-16 -16 -16 -16 -15 -15 -15 -15 -15 -15 -15 -15 -15 -15 -15 -16 -16 -17 -17 -18 -18 -18 -18 -19 -20 -19 -20 -20 -20 -20 -21 -21 -21 -21 -21 -21 -20 -19 -19 -19 -18 -18 -17 -17 -16
-16 -16 -16 -16 -16 -16 -15 -15 -15 -15 -15 -15 -15 -15 -16 -16 -16 -17 -18 -18 -18 -19 -19 -19 -19 -20 -20 -20 -20 -21 -21 -21 -21 -21 -21 -21 -20 -19 -19 -19 -18 -18 -18 -17 -17
-15 -16 -16 -16 -16 -16 -16 -15 -15 -15 -15 -16 -16 -16 -16 -16 -17 -17 -18 -18 -18 -19 -19 -19 -20 -20 -19 -20 -20 -20 -21 -21 -21 -21 -21 -21 -20 -19 -20 -19 -19 -18 -18 -18 -17
-15 -15 -15 -15 -15 -16 -16 -16 -16 -15 -16 -16 -16 -16 -16 -16 -16 -17 -17 -17 -18 -18 -18 -19 -20 -20 -19 -20 -20 -20 -20 -21 -21 -20 -20 -20 -20 -20 -20 -19 -18 -18 -18 -17 -17
-15 -15 -15 -15 -15 -15 -16 -16 -16 -16 -16 -16 -16 -16 -16 -16 -16 -17 -17 -18 -18 -18 -18 -19 -19 -19 -20 -20 -20 -20 -20 -20 -20 -20 -20 -20 -20 -20 -20 -20 -19 -18 -18 -17 -17
-15 -15 -15 -15 -15 -15 -15 -16 -16 -16 -16 -16 -16 -16 -16 -16 -16 -17 -17 -18 -18 -18 -19 -19 -19 -20 -20 -19 -19 -20 -20 -20 -20 -20 -20 -20 -20 -20 -20 -19 -19 -18 -18 -17 -17
-15 -15 -15 -15 -15 -15 -15 -16 -16 -16 -16 -16 -16 -17 -16 -16 -16 -16 -17 -17 -18 -19 -19 -19 -19 -20 -20 -19 -20 -20 -20 -20 -20 -20 -20 -20 -20 -20 -20 -19 -20 -19 -19 -17 -17
-15 -15 -15 -15 -15 -15 -15 -16 -16 -16 -16 -16 -16 -16 -17 -16 -16 -17 -17 -17 -18 -18 -19 -19 -19 -19 -20 -20 -20 -20 -20 -20 -20 -21 -20 -20 -20 -20 -19 -20 -19 -19 -19 -18 -18
-16 -16 -16 -15 -15 -15 -15 -16 -16 -16 -16 -16 -16 -16 -17 -17 -16 -16 -17 -17 -17 -18 -18 -19 -19 -19 -19 -20 -20 -20 -20 -20 -21 -20 -20 -20 -20 -20 -20 -19 -19 -19 -19 -18 -18
-16 -16 -16 -16 -16 -16 -16 -16 -16 -16 -16 -16 -16 -16 -16 -17 -17 -17 -16 -17 -17 -17 -18 -18 -18 -18 -19 -19 -19 -20 -20 -20 -20 -20 -20 -21 -20 -20 -20 -20 -19 -19 -19 -19 -18
-17 -16 -16 -16 -16 -16 -16 -16 -16 -16 -16 -16 -16 -16 -16 -17 -17 -17 -17 -16 -17 -17 -17 -18 -18 -18 -19 -19 -19 -20 -20 -20 -21 -21 -20 -20 -20 -20 -20 -20 -20 -20 -19 -19 -18
-18 -17 -17 -16 -17 -16 -16 -16 -16 -16 -16 -16 -16 -16 -16 -17 -17 -17 -17 -17 -17 -17 -17 -17 -18 -18 -18 -18 -19 -19 -20 -20 -20 -20 -20 -21 -20 -20 -21 -21 -20 -20 -20 -19 -19
-17 -18 -17 -17 -17 -17 -17 -16 -16 -16 -16 -16 -16 -16 -16 -17 -16 -17 -17 -17 -17 -17 -17 -17 -17 -17 -18 -18 -18 -19 -19 -19 -19 -19 -20 -20 -20 -20 -20 -21 -20 -20 -20 -20 -19
-18 -18 -17 -17 -17 -17 -17 -17 -17 -17 -16 -16 -16 -16 -16 -17 -17 -17 -17 -17 -17 -16 -17 -17 -17 -17 -17 -17 -17 -18 -18 -18 -19 -18 -19 -19 -19 -20 -20 -20 -20 -20 -20 -20 -19
Height
5803 5801 5798 5796 5793 5790 5789 5787 5786 5786 5785 5783 5782 5780 5778 5776 5774 5771 5769 5767 5764 5761 5759 5757 5755 5754 5753 5753 5753 5755 5759 5767 5770 5769 5775 5783 5783 5791 5794 5798 5807 5802 5810 5817 5830
5802 5800 5797 5795 5792 5789 5787 5785 5784 5783 5781 5779 5777 5775 5772 5769 5767 5763 5760 5756 5753 5749 5746 5744 5741 5739 5737 5736 5736 5737 5743 5748 5750 5754 5756 5763 5768 5770 5781 5786 5796 5792 5800 5811 5821
5800 5798 5795 5792 5790 5788 5786 5784 5782 5780 5777 5775 5773 5770 5766 5762 5760 5756 5751 5745 5740 5736 5731 5727 5724 5723 5721 5718 5717 5719 5724 5726 5731 5733 5737 5746 5754 5756 5759 5774 5781 5780 5786 5804 5811
5796 5795 5792 5790 5789 5786 5784 5781 5779 5776 5773 5771 5768 5764 5760 5756 5752 5745 5740 5734 5728 5721 5716 5712 5708 5705 5703 5702 5700 5701 5703 5706 5711 5713 5718 5730 5732 5739 5747 5761 5764 5773 5779 5791 5797
5795 5792 5790 5787 5786 5783 5781 5778 5776 5773 5769 5767 5763 5760 5756 5750 5745 5739 5733 5726 5719 5713 5706 5700 5696 5692 5691 5690 5687 5688 5691 5691 5693 5697 5701 5712 5719 5724 5735 5745 5751 5763 5767 5777 5786
5793 5791 5788 5785 5782 5780 5777 5774 5772 5769 5766 5763 5759 5754 5751 5746 5740 5734 5727 5719 5711 5702 5696 5690 5686 5683 5682 5680 5678 5678 5680 5682 5684 5688 5691 5695 5705 5704 5718 5726 5738 5750 5756 5763 5775
5792 5789 5786 5783 5780 5777 5774 5771 5768 5766 5763 5760 5756 5751 5746 5742 5735 5728 5721 5712 5704 5696 5688 5683 5678 5675 5673 5672 5671 5670 5672 5674 5677 5678 5683 5679 5685 5694 5707 5712 5722 5733 5739 5746 5760
5790 5788 5785 5781 5778 5775 5772 5769 5765 5762 5759 5756 5752 5747 5742 5737 5730 5723 5715 5706 5696 5687 5681 5675 5672 5670 5667 5666 5665 5664 5665 5667 5666 5668 5672 5669 5681 5689 5692 5696 5705 5718 5727 5736 5743
5788 5786 5783 5780 5777 5774 5770 5766 5762 5758 5755 5752 5748 5743 5739 5733 5726 5718 5709 5700 5690 5682 5676 5670 5669 5666 5664 5662 5661 5659 5659 5659 5660 5660 5661 5661 5673 5676 5675 5680 5690 5702 5712 5722 5731
5785 5783 5781 5778 5775 5772 5768 5764 5760 5755 5752 5748 5744 5741 5735 5729 5721 5714 5704 5695 5687 5678 5672 5668 5665 5663 5661 5659 5658 5656 5654 5653 5654 5655 5653 5655 5660 5664 5667 5671 5678 5688 5699 5708 5718
5782 5780 5778 5776 5773 5770 5766 5762 5759 5755 5748 5744 5740 5735 5730 5724 5717 5710 5701 5693 5684 5677 5670 5666 5663 5660 5657 5654 5652 5650 5649 5649 5650 5648 5645 5647 5651 5655 5659 5662 5668 5677 5686 5699 5706
5778 5777 5775 5773 5770 5767 5763 5760 5756 5752 5747 5740 5736 5731 5726 5720 5714 5707 5699 5692 5683 5675 5668 5664 5659 5657 5654 5649 5645 5642 5640 5641 5642 5640 5638 5642 5645 5648 5652 5657 5661 5667 5676 5689 5696
5774 5773 5772 5769 5767 5764 5760 5757 5752 5748 5744 5738 5733 5728 5722 5718 5710 5703 5696 5690 5682 5674 5666 5660 5657 5653 5650 5646 5641 5638 5634 5632 5632 5631 5632 5634 5638 5642 5647 5649 5655 5661 5670 5677 5681
5768 5767 5766 5765 5764 5760 5757 5753 5749 5744 5741 5737 5731 5724 5718 5713 5709 5700 5694 5688 5681 5673 5666 5659 5655 5652 5647 5643 5638 5635 5631 5627 5625 5624 5627 5629 5631 5637 5641 5645 5650 5656 5661 5669 5674
5762 5762 5760 5759 5757 5756 5754 5750 5746 5742 5738 5734 5727 5721 5716 5710 5704 5701 5692 5685 5677 5670 5666 5659 5652 5648 5644 5640 5635 5632 5625 5624 5622 5621 5621 5626 5627 5636 5636 5640 5644 5650 5655 5660 5667
5757 5756 5754 5753 5751 5750 5748 5746 5743 5741 5735 5731 5726 5719 5714 5709 5703 5697 5690 5683 5676 5670 5665 5658 5651 5646 5642 5638 5632 5628 5623 5621 5620 5619 5620 5624 5625 5631 5633 5634 5638 5644 5650 5656 5662
5751 5750 5749 5747 5746 5744 5743 5742 5741 5737 5734 5729 5723 5718 5712 5706 5701 5695 5688 5682 5675 5670 5664 5656 5651 5646 5641 5637 5632 5627 5624 5623 5621 5620 5622 5624 5625 5630 5631 5633 5638 5642 5647 5652 5658
5745 5745 5744 5744 5742 5740 5739 5738 5736 5734 5729 5726 5721 5716 5711 5704 5700 5694 5689 5681 5675 5668 5663 5658 5651 5645 5641 5637 5634 5629 5626 5623 5622 5622 5624 5624 5626 5627 5628 5630 5633 5637 5642 5647 5654
5738 5739 5739 5738 5737 5737 5736 5734 5731 5729 5727 5723 5720 5715 5709 5705 5699 5692 5688 5681 5673 5668 5664 5657 5651 5646 5640 5637 5633 5630 5628 5627 5625 5624 5624 5625 5626 5626 5627 5628 5630 5633 5638 5645 5650
5730 5731 5733 5731 5731 5732 5732 5730 5726 5724 5722 5719 5715 5712 5707 5702 5696 5690 5686 5681 5675 5669 5663 5658 5653 5646 5639 5636 5634 5631 5630 5628 5626 5625 5624 5625 5624 5624 5626 5626 5628 5630 5633 5640 5647
5721 5723 5725 5724 5725 5726 5726 5725 5724 5721 5718 5717 5713 5709 5705 5702 5697 5691 5686 5681 5675 5670 5664 5659 5654 5649 5643 5638 5633 5632 5629 5626 5625 5624 5622 5623 5623 5623 5623 5625 5627 5629 5631 5637 5643
5712 5713 5717 5717 5719 5719 5720 5719 5719 5718 5715 5713 5710 5707 5703 5699 5697 5691 5686 5679 5675 5670 5665 5661 5655 5649 5645 5640 5635 5631 5628 5625 5623 5623 5621 5619 5621 5619 5618 5619 5622 5625 5629 5633 5640
5702 5704 5707 5709 5711 5712 5713 5713 5712 5712 5711 5709 5707 5704 5701 5697 5695 5691 5686 5681 5675 5669 5665 5661 5656 5652 5646 5642 5635 5632 5628 5625 5621 5618 5618 5616 5617 5616 5615 5615 5616 5620 5626 5631 5636
5692 5693 5698 5700 5702 5704 5705 5706 5707 5707 5705 5704 5703 5700 5699 5696 5692 5690 5685 5682 5676 5671 5665 5661 5656 5651 5646 5642 5635 5631 5627 5623 5619 5617 5615 5614 5612 5611 5611 5611 5613 5617 5623 5628 5634
5679 5683 5686 5691 5693 5694 5696 5698 5700 5700 5699 5699 5699 5695 5694 5693 5690 5687 5685 5680 5677 5672 5667 5662 5657 5652 5646 5642 5636 5632 5627 5621 5618 5615 5614 5612 5609 5609 5610 5610 5612 5616 5622 5628 5635
5666 5671 5675 5679 5683 5684 5686 5690 5692 5692 5690 5694 5692 5691 5690 5689 5687 5684 5681 5679 5676 5673 5667 5663 5659 5654 5649 5643 5639 5634 5628 5623 5619 5615 5613 5611 5611 5609 5609 5610 5612 5616 5622 5629 5636
5655 5658 5662 5665 5670 5673 5677 5678 5683 5683 5684 5684 5685 5685 5685 5683 5682 5681 5679 5677 5675 5670 5667 5663 5659 5656 5651 5645 5641 5638 5631 5627 5622 5618 5617 5615 5614 5613 5612 5612 5614 5620 5626 5632 5638
Wind_Speed
16 17 18 19 19 17 16 16 18 19 21 22 22 22 24 25 26 30 32 36 39 42 45 48 52 55 57 59 61 62 62 59 59 63 63 60 62 59 60 61 58 63 57 54 41
16 18 18 18 19 16 15 16 17 18 18 18 19 22 23 25 26 29 30 33 35 38 40 42 46 52 56 61 64 67 67 66 68 68 69 69 66 68 65 65 59 66 63 54 47
16 18 19 18 19 18 16 15 16 16 16 17 20 24 27 29 29 30 35 38 40 41 41 42 42 45 50 56 60 63 68 72 73 75 76 73 72 73 74 68 63 67 67 56 49
13 15 16 17 17 18 17 16 15 16 17 19 22 26 29 32 34 39 43 45 47 48 47 45 44 44 46 46 48 55 57 63 70 75 82 78 78 77 78 71 67 64 65 63 57
13 14 14 15 16 17 17 18 18 18 19 20 23 26 30 34 35 40 46 49 49 48 46 44 40 39 37 38 41 40 41 48 52 60 76 77 74 76 76 73 66 67 68 66 64
15 15 15 14 15 16 18 18 19 20 21 23 25 27 31 33 36 41 45 48 47 47 46 44 36 34 32 32 33 35 36 39 42 42 47 60 65 74 76 72 66 65 68 69 63
17 17 16 16 15 16 17 19 20 21 23 24 26 27 32 33 37 43 46 47 46 44 43 40 31 30 29 28 31 33 33 34 34 36 37 48 53 63 70 66 65 69 70 73 66
17 17 16 17 17 17 18 19 21 22 24 26 26 27 31 34 39 44 47 45 43 43 39 32 27 26 23 24 26 27 29 29 31 33 33 41 38 45 54 61 65 64 70 73 72
16 16 17 18 19 20 20 20 22 24 25 27 28 28 31 34 39 43 46 42 42 41 36 27 24 22 19 20 20 23 26 27 30 33 36 38 32 35 45 53 58 62 67 69 70
17 18 18 18 21 22 23 22 22 24 26 27 28 29 30 34 38 42 42 41 40 39 32 24 20 19 22 24 24 24 25 25 23 28 35 36 35 35 43 46 51 56 66 66 73
20 21 21 21 21 23 24 25 24 23 27 28 26 29 30 33 37 40 38 38 39 38 29 21 20 22 23 26 28 29 28 29 29 34 36 35 35 34 37 44 46 51 60 64 69
23 23 24 23 23 23 24 25 26 24 26 27 27 29 29 31 36 36 35 34 35 35 31 23 21 23 30 28 27 29 29 29 30 34 37 34 34 32 33 37 41 42 51 57 62
26 27 26 25 25 25 25 26 28 27 26 23 28 29 29 30 34 36 32 32 33 33 29 26 21 26 27 26 26 26 28 31 29 30 30 32 32 31 27 31 35 37 42 54 61
29 29 28 28 28 26 26 26 27 30 28 28 30 30 30 30 31 35 32 32 33 33 31 27 20 24 24 25 28 26 26 25 23 25 23 24 28 24 26 28 31 32 36 48 57
29 30 29 29 29 28 26 26 27 29 31 30 32 32 31 30 33 32 34 32 32 33 33 28 19 23 22 23 28 27 22 23 18 19 20 19 27 17 21 23 27 31 34 38 47
25 25 25 26 27 27 26 25 26 27 30 29 31 33 32 27 28 33 34 34 35 32 31 26 25 22 20 23 20 24 15 13 14 13 13 11 18 12 17 19 24 28 30 30 32
21 18 20 22 23 23 25 26 26 25 27 30 30 31 33 31 27 31 33 37 35 32 32 25 22 24 18 17 20 16 13 8 7 5 5 8 15 8 14 23 24 29 27 28 25
26 24 22 22 20 20 20 23 26 26 25 28 29 30 31 33 28 29 31 33 32 34 27 30 27 23 19 16 14 14 13 5 12 6 6 7 9 8 11 16 19 28 30 28 25
28 26 25 26 26 25 22 20 23 25 25 25 27 27 31 29 30 28 28 29 33 33 33 35 32 26 24 16 14 11 11 10 10 12 11 10 6 5 6 11 18 25 34 31 25
31 30 26 28 28 26 24 22 23 25 26 25 27 29 29 30 32 32 29 28 29 31 32 31 31 26 25 17 12 11 11 10 11 11 11 7 9 10 9 10 13 16 26 35 30
37 35 29 31 29 28 25 25 24 24 26 26 25 29 27 28 29 30 31 28 27 27 29 32 29 26 20 18 15 12 13 13 12 13 14 11 12 12 13 13 13 16 20 27 27
40 40 34 33 32 28 27 27 26 25 27 26 27 27 30 26 28 28 30 31 26 25 27 27 24 24 22 22 13 9 11 10 14 14 19 15 15 18 22 17 19 18 19 25 27
42 42 38 34 33 30 27 29 29 28 26 25 26 28 26 31 25 28 26 29 29 25 25 25 26 24 27 27 25 25 22 25 16 18 18 20 18 15 18 17 17 19 20 25 27
42 44 40 36 35 32 31 31 30 29 29 29 26 28 27 25 29 29 27 25 28 26 26 25 26 27 28 29 29 30 29 25 20 11 11 13 17 18 18 14 16 20 22 29 28
46 46 45 39 35 36 34 35 30 31 33 32 29 29 28 25 25 25 28 26 25 27 26 26 23 24 24 24 24 24 22 20 15 15 7 6 9 8 7 10 12 19 23 30 25
51 47 46 44 39 39 37 35 32 31 36 32 34 32 27 28 26 26 25 28 25 24 24 23 22 22 22 21 20 21 22 13 15 9 5 3 2 2 6 6 8 15 23 27 26
49 51 54 53 44 45 39 39 35 35 34 35 35 35 31 28 27 25 28 26 27 25 24 23 22 21 21 19 18 15 17 14 10 8 9 6 6 8 8 5 8 11 18 21 25
Wind_Direction
322 326 329 329 321 304 295 292 287 283 280 280 282 288 291 291 293 292 288 285 280 276 274 272 270 267 265 261 258 254 251 251 248 245 245 242 243 239 231 236 232 238 232 233 227
320 325 326 326 327 312 307 302 293 289 289 298 304 304 307 310 316 306 303 300 296 291 285 279 272 266 261 257 255 252 251 248 243 242 241 239 237 240 234 235 230 236 234 234 226
323 326 326 327 328 325 311 307 302 303 307 315 320 323 324 325 324 323 318 317 314 312 308 300 290 277 265 257 253 250 248 244 240 238 238 238 238 236 239 233 230 229 236 231 229
317 326 329 326 324 328 319 313 311 315 319 326 330 333 334 333 336 334 334 332 329 324 318 309 298 287 278 271 263 256 251 245 242 240 237 236 236 234 238 236 231 231 236 230 224
315 324 329 326 321 326 326 323 321 321 325 329 333 337 338 338 338 340 340 337 332 326 318 310 299 289 282 275 270 265 257 252 246 244 241 236 238 240 235 235 236 231 233 229 226
315 323 330 328 322 324 328 328 328 327 327 331 336 337 342 340 341 343 340 335 328 322 318 313 302 291 284 276 269 266 262 255 254 252 249 247 240 239 234 235 231 230 232 232 224
320 325 328 330 325 323 329 333 335 332 331 331 336 339 343 342 343 344 340 332 323 319 318 315 300 291 284 279 270 267 263 257 257 255 248 246 239 238 240 240 235 229 225 229 225
326 331 334 334 331 327 329 337 339 339 335 333 335 339 341 341 344 345 338 333 329 324 321 314 303 293 284 286 280 269 262 254 253 256 252 251 250 243 239 237 237 229 228 229 226
327 332 339 342 340 337 332 337 342 343 339 335 336 337 340 341 343 344 340 340 336 330 327 313 304 295 288 289 286 278 268 260 256 256 254 258 252 242 239 238 233 229 228 226 229
320 325 328 334 342 342 341 337 341 345 345 338 337 336 339 341 344 345 345 344 338 334 331 313 302 300 296 292 291 287 276 274 267 263 259 257 256 247 242 240 235 227 227 225 225
304 311 319 325 330 337 342 342 340 348 343 343 340 338 340 342 345 347 348 348 344 336 331 317 300 303 310 304 296 290 278 268 258 264 265 264 257 255 248 241 237 230 225 226 229
296 300 307 312 320 326 332 342 342 341 346 347 343 340 341 343 345 350 348 350 352 342 333 316 298 299 309 307 303 292 286 277 268 263 263 261 261 261 254 247 238 234 225 221 229
289 294 300 307 312 318 325 331 341 340 345 348 346 344 343 345 346 346 348 347 348 343 333 322 316 318 321 314 308 306 299 288 276 260 262 258 253 259 255 245 238 235 226 219 224
283 287 292 298 303 309 318 325 334 340 344 347 347 348 346 345 349 343 344 340 343 342 339 331 323 321 319 313 310 308 293 293 282 267 256 253 257 251 254 244 234 231 226 222 224
284 285 289 291 294 300 309 319 329 336 343 345 347 349 350 345 347 342 345 345 340 341 342 334 337 328 322 318 311 304 306 276 280 276 260 239 247 243 251 234 231 227 223 225 225
286 288 292 295 295 294 300 311 321 332 339 343 347 348 349 346 343 343 344 345 345 347 344 332 328 330 325 335 331 316 301 286 280 272 250 227 259 242 240 236 227 223 225 222 226
293 292 300 302 300 299 297 302 313 325 334 340 343 347 348 347 347 343 345 351 349 350 346 339 329 324 327 332 348 339 342 321 337 305 293 262 258 278 245 244 233 225 224 221 223
286 291 299 303 309 315 315 309 309 316 329 337 340 342 345 347 348 345 347 349 353 355 353 2 353 338 334 326 334 351 355 280 332 307 329 314 305 294 253 241 238 236 230 225 225
275 283 291 295 301 306 315 320 316 318 320 333 335 340 339 346 349 349 345 347 353 357 352 352 352 350 341 330 326 328 338 344 323 331 322 318 309 276 237 246 236 232 232 233 233
267 272 277 287 295 301 308 316 318 320 317 325 332 333 342 343 345 350 345 348 350 350 353 353 357 358 348 339 332 335 321 313 312 316 312 318 305 296 249 233 221 223 216 223 230
263 266 268 277 285 292 303 308 315 321 317 318 324 332 334 342 339 344 345 346 346 351 345 349 351 359 14 359 342 327 322 313 299 291 284 282 275 285 277 248 235 227 213 219 217
261 263 266 270 275 285 293 296 302 316 319 320 318 327 327 335 340 340 346 342 344 346 347 349 354 348 351 348 358 356 339 329 293 285 282 278 278 281 278 258 249 241 220 216 213
259 263 264 264 269 276 281 287 294 301 311 320 318 315 326 324 338 335 343 342 345 342 342 341 342 348 347 347 350 348 358 353 321 269 272 275 278 263 271 276 234 219 219 213 209
258 261 262 263 265 269 273 276 286 291 301 308 320 311 315 322 329 332 335 340 339 345 345 342 334 338 333 342 333 334 337 330 328 310 286 269 273 275 270 254 229 213 208 205 204
251 257 262 263 264 267 269 275 276 284 290 298 307 308 308 312 314 327 327 332 336 337 345 348 346 345 339 346 341 349 342 331 327 313 313 284 249 270 232 233 223 204 205 203 196
251 252 255 260 264 264 266 270 276 277 283 290 296 301 306 304 313 320 320 323 329 333 336 344 350 351 349 343 346 360 355 2 358 348 292 295 265 249 219 221 217 206 198 189 199
261 260 259 256 257 260 266 268 270 271 277 285 289 294 301 298 298 306 323 315 321 327 331 336 342 345 346 351 356 1 10 15 10 70 84 102 92 98 103 123 138 168 183 189 189